Tracking 28790 objects as of 19-Apr-2024
HD Live streaming from Space Station
objects crossing your sky now

FENGYUN 1C DEB

Track FENGYUN 1C DEB now!
10-day predictions


NORAD ID: 41827
Int'l Code: 1999-025EYE
Perigee: 794.9 km
Apogee: 884.3 km
Inclination: 98.8 °
Period: 101.6 minutes
Semi major axis: 7210 km
RCS: Unknown
Launch date: May 10, 1999
Source: People's Republic of China (PRC)
Launch site: Taiyaun Space Center, China (TSC)

Note: This is SATELLITE DEBRIS
Your satellite tracking list
Your tracking list is empty




NASA's NSSDC Master Catalog

Two Line Element Set (TLE):
1 41827U 99025EYE 24108.13849764  .00009689  00000-0  46662-2 0  9992
2 41827  98.7787 175.2939 0062006 159.2794 201.0916 14.17906317387384
Source of the keplerian elements: AFSPC